Location: ?????????
(41.2393°N, 22.9479°E)
Time: 13:47:18
(UTC+00:00)

Cosmos 2058 - Pass Details

Date: 17 November 2025
Orbit: 529 x 541 km, 82.5° (Epoch: 06 December)

Event Time Altitude Azimuth Distance (km) Brightness Sun altitude
Rises 16:02:46 0° 1° (N) 2,702 6.2 -10.6°
Reaches altitude 10° 16:05:06 10° 12° (NNE) 1,808 5.2 -11.0°
Maximum altitude 16:08:42 32° 77° (ENE) 939 3.4 -11.7°
Drops below altitude 10° 16:12:17 10° 141° (SE) 1,800 5.2 -12.3°
Sets 16:14:36 0° 152° (SSE) 2,688 6.2 -12.7°
